Location: Milton Keynes
(52.0316°N, 0.7531°W)
Time: 20:54:02
(UTC+00:00)

Genesis I - Pass Details

Date: 01 February 2019
Orbit: 476 x 550 km, 64.5° (Epoch: 14 February)

Event Time Altitude Azimuth Distance (km) Brightness Sun altitude
Exits shadow 05:53:26 16° 334° (NNW) 1,467 5.2 -17.0°
Maximum altitude 05:54:03 17° 346° (NNW) 1,444 5.2 -16.9°
Drops below altitude 10° 05:56:48 10° 27° (NNE) 1,837 6.2 -16.5°
Sets 05:59:41 0° 49° (NE) 2,729 7.5 -16.0°
